User: anonymous   Login
Location: Danville Conservation Area
(38.8674°N, 91.5143°W)
Time: 00:42:25
(UTC-06:00)
Language:

Envisat - Orbit

View from above orbital plane
View from above orbital plane
View from above satellite
View from above satellite

Ground track
Ground track

The orbit data is extracted from the following two-line orbital elements,

1 27386U 02009A   22023.75681787  .00000076  00000-0  38634-4 0  9996
2 27386  98.1688  11.7739 0001199  86.7417  86.5124 14.38070646 42730
Epoch (UTC): 23 January 2022 18:09:49
Eccentricity: 0.0001199
inclination: 98.1688°
perigee height: 764 km
apogee height: 766 km
right ascension of ascending node: 11.7739°
argument of perigee: 86.7417°
revolutions per day: 14.38070646
mean anomaly at epoch: 86.5124°
orbit number at epoch: 4273

The dashed part of the orbit path shows where the satellite is in the earth's shadow,  

DLR